sat.trackr.live / text

‹ back to catalog

STARLINK-36920

NORAD 67947 · 2026-037R

PAYLOAD ACTIVE UNKNOWN

§ Identity

Operator
Country
US
Launch date
2026-02-24
Launch site
AFETR
Launch vehicle
Mass (kg)
RCS (m²)

Purposes: comms

External: N2YO · Heavens-Above · Gunter

§ Orbital elements

Epoch: 2026-09-19T11:41:45.314592Z

Period
94.27 min
Inclination
43.0055°
Eccentricity
0.0001445
Mean motion
15.27597132 rev/d
Perigee alt
482.0 km
Apogee alt
484.0 km
Semi-major
6,861.1 km
B*
5.4319e-4
RAAN
175.9007°
Arg perigee
261.9120°
Mean anomaly
98.1568°
Rev number
3,298

§ Raw data

STARLINK-369201 67947U 26037R   26262.48733003  .00014723  00000+0  54319-3 0  99982 67947  43.0055 175.9007 0001445 261.9120  98.1568 15.27597132 32987

JSON: /api/v1/satellites/67947 · /tle

For live sub-satellite position, see the globe view (requires WebGL).

§ Visibility from observer

Set your observer location to see the next 7 days of passes ≥ 10°. The values pass through the URL so the page stays shareable.

No JS? Fill the form by hand. The geolocation button needs JavaScript.